THOR ABLESTAR DEB, 1522

Orbit data source: Space-Track

THOR ABLESTAR DEB, 1522 is space debris in LEO originally from a launch on Fri, 13 Aug 1965 UTC launched from the Air Force Western Test Range (AFWTR). Debris objects in space refer to the collection of defunct objects orbiting the Earth. Examples of debris include non-operational satellites, rocket bodies, and fragments generated from explosions, collisions, or faulty payload assembly.

Loading next visibility...
Identifier
1522, 1965-065L
Orbit
LEO
Country
Flag of USUS
Related business
Manufacturer
Unknown
Mission
Spacecraft
Bus & Motor
Unknown
Mass
Unknown
Launch date (UTC)
1965-08-13 (61 years ago)
Launch vehicle
Unknown
Launch site
Air Force Western Test Range (AFWTR)
Object type
Payload
Rocket body
Debris
Shape & HBR
Unknown shape, 0.4 m
Radar Cross Section
Medium (>0.1 m² and <1 m²)

Expand to show TLE details & history
Last TLE update: 14 hours ago

TLE from 14 hours ago
0 THOR ABLESTAR DEB
1  1522U 65065L   26131.04205090  .00000060  00000-0  10225-3 0  9994
2  1522  90.0636 126.2452 0070656 353.3913  69.8468 13.33854892954846
Epoch: 2026-05-11T01:00Z
TLE epoch observation values (Epoch: 2026-05-11T01:00:33.197Z)
Latitude
64.08344°
Longitude
-117.8598°
Altitude
1,125.424 km
Speed
7.305 km/s
True Right ascension
08h 24m 27s
True Declination
63° 57' 17"
Sunlit
Object was in daylight at epoch
Visualization orbit readout
Latitude
Unknown
Longitude
Unknown
Altitude
Unknown
Speed
Unknown
Apparent Right ascension
Unknown
Apparent Declination
Unknown
Sunlit
N/A
Visualization observer readout
Local Sidereal Time
23:05:41
Azimuth
Unknown
Elevation
Unknown
Doppler factor
Unknown
Orbital elements
Apogee altitude
1,182.376 km
Perigee altitude
1,076.287 km
Semi-major axis
7,507.468 km
Eccentricity
0.00707
Inclination
90.0636°
RAAN
126.2452°
Arg. of periapsis
353.3913°
True anomaly
70.60918°
Mean anomaly
69.8468°
Eccentric anomaly
70.22776°
Mean motion
3.33659 °/min
Orbital period
107.89 mins
BSTAR
0.00010225
Loading maneuver chart data...
Computing Atmospheric mass density...
Loading historical data...
Loading historical data...
Loading historical data...
Loading historical data...
Loading historical data...
Loading historical data...
Loading historical data...

Documentation

Showing up to 5 results
|